TimeCST,TemperatureF,Dew PointF,Humidity,Sea Level PressureIn,VisibilityMPH,Wind Direction,Wind SpeedMPH,Gust SpeedMPH,PrecipitationIn,Events,Conditions,WindDirDegrees,DateUTC
12:53 AM,28.0,23.0,81,30.46,10.0,North,12.7,-,N/A,,Overcast,360,2013-12-07 06:53:00
1:53 AM,27.0,23.0,85,30.46,10.0,North,12.7,-,N/A,,Overcast,10,2013-12-07 07:53:00
2:53 AM,28.0,23.0,81,30.46,10.0,North,10.4,-,N/A,,Overcast,10,2013-12-07 08:53:00
3:53 AM,27.0,23.0,85,30.47,9.0,North,9.2,-,N/A,,Overcast,350,2013-12-07 09:53:00
4:53 AM,28.0,24.1,85,30.47,5.0,North,9.2,-,0.00,Snow,Light Snow,360,2013-12-07 10:53:00
5:53 AM,28.0,23.0,81,30.48,10.0,North,9.2,-,0.00,,Overcast,360,2013-12-07 11:53:00
6:53 AM,28.0,24.1,85,30.48,10.0,NNE,10.4,-,N/A,,Overcast,20,2013-12-07 12:53:00
7:53 AM,28.0,24.1,85,30.50,10.0,NNE,10.4,-,N/A,,Overcast,20,2013-12-07 13:53:00
8:53 AM,28.9,25.0,85,30.48,10.0,NNE,10.4,-,N/A,,Overcast,20,2013-12-07 14:53:00
9:53 AM,30.0,25.0,82,30.49,10.0,NNE,9.2,-,N/A,,Overcast,30,2013-12-07 15:53:00
10:53 AM,30.9,26.1,82,30.49,10.0,NNE,11.5,-,N/A,,Overcast,20,2013-12-07 16:53:00
11:53 AM,30.9,26.1,82,30.44,10.0,NNE,12.7,-,0.00,,Overcast,20,2013-12-07 17:53:00
12:53 PM,30.9,26.1,82,30.41,10.0,North,10.4,-,N/A,,Overcast,10,2013-12-07 18:53:00
1:15 PM,32.0,26.6,80,30.39,10.0,NNE,8.1,-,N/A,,Overcast,30,2013-12-07 19:15:00
1:53 PM,32.0,26.1,79,30.38,10.0,North,10.4,-,N/A,,Overcast,10,2013-12-07 19:53:00
2:53 PM,30.9,26.1,82,30.36,10.0,NNE,10.4,-,N/A,,Overcast,20,2013-12-07 20:53:00
3:53 PM,30.9,26.1,82,30.35,10.0,NNE,10.4,-,N/A,,Overcast,30,2013-12-07 21:53:00
4:53 PM,30.9,26.1,82,30.34,10.0,NNE,9.2,-,0.00,,Overcast,30,2013-12-07 22:53:00
5:25 PM,32.0,26.6,80,30.32,10.0,NNE,4.6,-,N/A,,Overcast,20,2013-12-07 23:25:00
5:38 PM,32.0,26.6,80,30.32,10.0,NNE,4.6,-,N/A,,Overcast,20,2013-12-07 23:38:00
5:53 PM,32.0,26.1,79,30.33,10.0,NNE,6.9,-,N/A,,Overcast,20,2013-12-07 23:53:00
6:14 PM,32.0,26.6,80,30.31,10.0,NNE,5.8,-,N/A,,Overcast,30,2013-12-08 00:14:00
6:53 PM,32.0,27.0,82,30.32,10.0,NE,5.8,-,N/A,,Overcast,50,2013-12-08 00:53:00
7:53 PM,32.0,26.1,79,30.35,10.0,NNE,4.6,-,N/A,,Overcast,20,2013-12-08 01:53:00
8:53 PM,32.0,25.0,75,30.33,10.0,ENE,8.1,-,N/A,,Overcast,70,2013-12-08 02:53:00
9:53 PM,32.0,25.0,75,30.33,10.0,East,6.9,-,N/A,,Overcast,80,2013-12-08 03:53:00
10:53 PM,30.9,26.1,82,30.30,10.0,East,11.5,-,N/A,,Overcast,100,2013-12-08 04:53:00
11:53 PM,30.9,26.1,82,30.31,10.0,Calm,Calm,-,N/A,,Overcast,0,2013-12-08 05:53:00